| time (UTC) | temp C | wind direction | speed KPH | gust KPH | rain 1hr cm | rain 24hr cm | rain mn cm | humidity % | barometer mb |
| 20260504184904 | 26 | 123 | 14.5 | 17.7 | 0.00 | 0.00 | 0.00 | 86 | 1010.5 |
| 20260504184400 | 26 | 127 | 11.3 | 16.1 | 0.00 | 0.00 | 0.00 | 86 | 1010.5 |
| 20260504183856 | 26 | 135 | 9.7 | 14.5 | 0.00 | 0.00 | 0.00 | 86 | 1010.5 |
| 20260504183354 | 26 | 132 | 16.1 | 25.7 | 0.00 | 0.00 | 0.00 | 87 | 1010.5 |
| 20260504182852 | 26 | 132 | 12.9 | 19.3 | 0.00 | 0.00 | 0.00 | 87 | 1010.5 |
| 20260504182349 | 26 | 123 | 12.9 | 19.3 | 0.00 | 0.00 | 0.00 | 87 | 1010.5 |
| 20260504181845 | 27 | 131 | 12.9 | 20.9 | 0.00 | 0.00 | 0.00 | 87 | 1010.5 |
| 20260504181343 | 27 | 120 | 14.5 | 20.9 | 0.00 | 0.00 | 0.00 | 87 | 1010.5 |
| 20260504180842 | 27 | 114 | 16.1 | 20.9 | 0.00 | 0.00 | 0.00 | 87 | 1010.5 |
| 20260504180340 | 27 | 103 | 12.9 | 17.7 | 0.00 | 0.00 | 0.00 | 88 | 1010.5 |
| 20260504175838 | 27 | 119 | 12.9 | 19.3 | 0.00 | 0.00 | 0.00 | 88 | 1010.8 |
| 20260504175334 | 27 | 109 | 16.1 | 24.1 | 0.00 | 0.00 | 0.00 | 88 | 1010.5 |
| 20260504174832 | 27 | 113 | 11.3 | 12.9 | 0.00 | 0.00 | 0.00 | 88 | 1010.8 |
| 20260504174329 | 27 | 102 | 14.5 | 19.3 | 0.00 | 0.00 | 0.00 | 88 | 1010.8 |
| 20260504173826 | 27 | 99 | 12.9 | 17.7 | 0.00 | 0.00 | 0.00 | 88 | 1010.8 |
| 20260504173323 | 27 | 103 | 14.5 | 20.9 | 0.00 | 0.00 | 0.00 | 88 | 1010.8 |
| 20260504172820 | 27 | 100 | 14.5 | 20.9 | 0.00 | 0.00 | 0.00 | 88 | 1010.8 |
| 20260504172317 | 27 | 95 | 16.1 | 20.9 | 0.00 | 0.00 | 0.00 | 87 | 1010.8 |
| 20260504171812 | 27 | 93 | 14.5 | 19.3 | 0.00 | 0.00 | 0.00 | 88 | 1010.8 |
| 20260504171310 | 27 | 93 | 12.9 | 16.1 | 0.00 | 0.00 | 0.00 | 87 | 1010.8 |
| 20260504170807 | 27 | 86 | 11.3 | 19.3 | 0.00 | 0.00 | 0.00 | 87 | 1010.8 |
| 20260504170304 | 27 | 110 | 16.1 | 22.5 | 0.00 | 0.00 | 0.00 | 87 | 1010.8 |
| 20260504160222 | 27 | 105 | 12.9 | 17.7 | 0.00 | 0.00 | 0.00 | 84 | 1011.1 |
| 20260504150652 | 27 | 116 | 9.7 | 14.5 | 0.00 | 0.00 | 0.00 | 86 | 1011.5 |
| 20260504150149 | 27 | 117 | 14.5 | 20.9 | 0.00 | 0.00 | 0.00 | 86 | 1011.5 |
| 20260504141118 | 27 | 99 | 14.5 | 20.9 | 0.00 | 0.00 | 0.00 | 87 | 1011.8 |
| 20260504140615 | 27 | 92 | 14.5 | 19.3 | 0.00 | 0.00 | 0.00 | 87 | 1011.8 |
| 20260504140110 | 27 | 98 | 14.5 | 20.9 | 0.00 | 0.00 | 0.00 | 86 | 1011.8 |
| 20260504130539 | 27 | 86 | 16.1 | 22.5 | 0.00 | 0.15 | 0.15 | 88 | 1012.2 |
| 20260504110426 | 27 | 88 | 17.7 | 27.4 | 0.00 | 0.13 | 0.13 | 85 | 1011.5 |
| 20260504100349 | 27 | 89 | 16.1 | 20.9 | 0.00 | 0.13 | 0.13 | 88 | 1011.1 |
| 20260504081742 | 27 | 73 | 14.5 | 16.1 | 0.00 | 0.13 | 0.13 | 87 | 1010.1 |
| 20260504081238 | 27 | 75 | 14.5 | 17.7 | 0.00 | 0.13 | 0.13 | 88 | 1009.8 |
| 20260504080735 | 27 | 68 | 17.7 | 25.7 | 0.00 | 0.13 | 0.13 | 88 | 1009.8 |
| 20260504080231 | 27 | 65 | 22.5 | 27.4 | 0.00 | 0.13 | 0.13 | 89 | 1009.8 |
| 20260504070159 | 27 | 63 | 16.1 | 20.9 | 0.00 | 0.03 | 0.03 | 87 | 1009.4 |
| 20260504060120 | 28 | 80 | 24.1 | 32.2 | 0.00 | 0.03 | 0.03 | 80 | 1009.4 |
| 20260504050548 | 27 | 71 | 22.5 | 30.6 | 0.00 | 0.03 | 0.03 | 85 | 1009.8 |
| 20260504045541 | 29 | 92 | 19.3 | 27.4 | 0.00 | 0.00 | 0.00 | 80 | 1009.8 |
| 20260504045037 | 29 | 101 | 20.9 | 27.4 | 0.00 | 0.00 | 0.00 | 80 | 1009.8 |
| 20260504044535 | 29 | 85 | 17.7 | 22.5 | 0.00 | 0.00 | 0.00 | 79 | 1010.1 |
| 20260504044031 | 31 | 82 | 22.5 | 37.0 | 0.00 | 0.00 | 0.00 | 71 | 1009.8 |
| 20260504043528 | 30 | 71 | 25.7 | 33.8 | 0.00 | 0.00 | 0.00 | 72 | 1009.4 |
| 20260504043026 | 30 | 88 | 24.1 | 33.8 | 0.00 | 0.00 | 0.00 | 73 | 1009.8 |
| 20260504042523 | 30 | 76 | 17.7 | 24.1 | 0.00 | 0.00 | 0.00 | 74 | 1009.8 |
| 20260504042020 | 30 | 88 | 17.7 | 24.1 | 0.00 | 0.00 | 0.00 | 74 | 1010.1 |
| 20260504041515 | 30 | 77 | 17.7 | 27.4 | 0.00 | 0.00 | 0.00 | 74 | 1010.1 |
| 20260504041011 | 30 | 73 | 17.7 | 22.5 | 0.00 | 0.00 | 0.00 | 73 | 1010.1 |
| 20260504040509 | 30 | 75 | 24.1 | 27.4 | 0.00 | 0.00 | 0.00 | 73 | 1010.1 |
| 20260504040006 | 30 | 67 | 25.7 | 33.8 | 0.00 | 0.00 | 0.00 | 72 | 1009.8 |
| 20260504035503 | 30 | 63 | 19.3 | 25.7 | 0.00 | 0.00 | 0.00 | 72 | 1010.1 |
| 20260504034959 | 31 | 76 | 30.6 | 40.2 | 0.00 | 0.00 | 0.00 | 70 | 1010.1 |
| 20260504034457 | 30 | 76 | 20.9 | 27.4 | 0.00 | 0.00 | 0.00 | 70 | 1010.1 |
| 20260504033954 | 30 | 76 | 27.4 | 37.0 | 0.00 | 0.00 | 0.00 | 71 | 1010.5 |
| 20260504033451 | 30 | 95 | 22.5 | 27.4 | 0.00 | 0.00 | 0.00 | 72 | 1010.1 |
| 20260504032948 | 30 | 93 | 17.7 | 29.0 | 0.00 | 0.00 | 0.00 | 76 | 1010.5 |
| 20260504032445 | 30 | 83 | 20.9 | 27.4 | 0.00 | 0.00 | 0.00 | 74 | 1010.5 |
| 20260504031942 | 30 | 91 | 22.5 | 32.2 | 0.00 | 0.00 | 0.00 | 73 | 1010.5 |
| 20260504031439 | 30 | 96 | 17.7 | 24.1 | 0.00 | 0.00 | 0.00 | 72 | 1010.5 |
| 20260504030936 | 30 | 95 | 20.9 | 32.2 | 0.00 | 0.00 | 0.00 | 72 | 1010.5 |
| 20260504030433 | 30 | 87 | 19.3 | 27.4 | 0.00 | 0.00 | 0.00 | 72 | 1010.5 |
| 20260504025928 | 30 | 71 | 24.1 | 30.6 | 0.00 | 0.00 | 0.00 | 72 | 1010.8 |
| 20260504025426 | 30 | 60 | 29.0 | 43.5 | 0.00 | 0.00 | 0.00 | 72 | 1010.5 |
| 20260504024923 | 30 | 87 | 25.7 | 33.8 | 0.00 | 0.00 | 0.00 | 72 | 1010.8 |
| 20260504024420 | 30 | 69 | 14.5 | 20.9 | 0.00 | 0.00 | 0.00 | 74 | 1011.1 |
| 20260504023917 | 30 | 78 | 27.4 | 32.2 | 0.00 | 0.00 | 0.00 | 73 | 1010.8 |
| 20260504023413 | 30 | 80 | 24.1 | 30.6 | 0.00 | 0.00 | 0.00 | 72 | 1010.8 |
| 20260504022908 | 30 | 99 | 20.9 | 32.2 | 0.00 | 0.00 | 0.00 | 72 | 1011.1 |
| 20260504022405 | 30 | 80 | 22.5 | 33.8 | 0.00 | 0.00 | 0.00 | 73 | 1010.8 |
| 20260504021902 | 30 | 55 | 29.0 | 35.4 | 0.00 | 0.00 | 0.00 | 73 | 1010.8 |
| 20260504021359 | 30 | 69 | 32.2 | 45.1 | 0.00 | 0.00 | 0.00 | 72 | 1010.8 |
| 20260504020856 | 30 | 69 | 24.1 | 30.6 | 0.00 | 0.00 | 0.00 | 72 | 1011.1 |
| 20260504020353 | 30 | 65 | 24.1 | 32.2 | 0.00 | 0.00 | 0.00 | 72 | 1011.1 |
| 20260504015849 | 30 | 67 | 27.4 | 40.2 | 0.00 | 0.00 | 0.00 | 72 | 1011.1 |
| 20260504015345 | 30 | 68 | 32.2 | 41.8 | 0.00 | 0.00 | 0.00 | 72 | 1011.1 |
| 20260504014841 | 30 | 63 | 24.1 | 35.4 | 0.00 | 0.00 | 0.00 | 74 | 1011.5 |
| 20260504014337 | 30 | 76 | 30.6 | 35.4 | 0.00 | 0.00 | 0.00 | 73 | 1011.5 |
| 20260504013835 | 30 | 74 | 30.6 | 38.6 | 0.00 | 0.00 | 0.00 | 72 | 1011.1 |
| 20260504013333 | 30 | 85 | 22.5 | 29.0 | 0.00 | 0.00 | 0.00 | 72 | 1011.5 |
| 20260504012830 | 30 | 75 | 27.4 | 35.4 | 0.00 | 0.00 | 0.00 | 72 | 1011.5 |
| 20260504012327 | 30 | 64 | 32.2 | 40.2 | 0.00 | 0.00 | 0.00 | 72 | 1011.1 |
| 20260504011825 | 30 | 71 | 25.7 | 41.8 | 0.00 | 0.00 | 0.00 | 73 | 1011.5 |
| 20260504011321 | 30 | 63 | 27.4 | 32.2 | 0.00 | 0.00 | 0.00 | 74 | 1011.5 |
| 20260504010817 | 30 | 68 | 25.7 | 32.2 | 0.00 | 0.00 | 0.00 | 73 | 1011.5 |
| 20260504010312 | 30 | 63 | 25.7 | 35.4 | 0.00 | 0.00 | 0.00 | 73 | 1011.5 |
| 20260504005809 | 30 | 67 | 22.5 | 29.0 | 0.00 | 0.00 | 0.00 | 73 | 1011.8 |
| 20260504005306 | 30 | 74 | 27.4 | 35.4 | 0.00 | 0.00 | 0.00 | 72 | 1011.8 |
| 20260504004804 | 30 | 70 | 25.7 | 30.6 | 0.00 | 0.00 | 0.00 | 74 | 1011.8 |
| 20260504004301 | 30 | 74 | 24.1 | 30.6 | 0.00 | 0.00 | 0.00 | 77 | 1011.8 |
| 20260504003758 | 30 | 74 | 24.1 | 29.0 | 0.00 | 0.00 | 0.00 | 76 | 1011.8 |
| 20260504003255 | 29 | 80 | 19.3 | 27.4 | 0.00 | 0.00 | 0.00 | 77 | 1012.2 |
| 20260504002751 | 30 | 67 | 25.7 | 30.6 | 0.00 | 0.00 | 0.00 | 76 | 1012.2 |
| 20260504002248 | 30 | 90 | 24.1 | 32.2 | 0.00 | 0.00 | 0.00 | 75 | 1012.2 |
| 20260504001746 | 30 | 66 | 14.5 | 19.3 | 0.00 | 0.00 | 0.00 | 75 | 1012.2 |
| 20260504001243 | 30 | 73 | 20.9 | 24.1 | 0.00 | 0.00 | 0.00 | 74 | 1012.2 |
| 20260504000739 | 30 | 62 | 24.1 | 32.2 | 0.00 | 0.00 | 0.00 | 75 | 1011.8 |
| 20260504000236 | 30 | 49 | 19.3 | 27.4 | 0.00 | 0.00 | 0.00 | 75 | 1012.2 |
| 20260503235735 | 30 | 74 | 24.1 | 29.0 | 0.00 | 0.00 | 0.00 | 74 | 1012.2 |
| 20260503235231 | 30 | 75 | 16.1 | 24.1 | 0.00 | 0.00 | 0.00 | 75 | 1012.2 |
| 20260503234729 | 30 | 72 | 24.1 | 37.0 | 0.00 | 0.00 | 0.00 | 74 | 1012.2 |
| 20260503234227 | 30 | 57 | 17.7 | 30.6 | 0.00 | 0.00 | 0.00 | 75 | 1011.8 |
| 20260503233724 | 30 | 81 | 19.3 | 20.9 | 0.00 | 0.00 | 0.00 | 74 | 1011.8 |
| 20260503233219 | 30 | 90 | 16.1 | 24.1 | 0.00 | 0.00 | 0.00 | 74 | 1011.8 |
| 20260503232717 | 30 | 76 | 22.5 | 30.6 | 0.00 | 0.00 | 0.00 | 74 | 1011.8 |
| 20260503232214 | 30 | 56 | 22.5 | 29.0 | 0.00 | 0.00 | 0.00 | 75 | 1011.8 |
| 20260503231712 | 30 | 71 | 22.5 | 30.6 | 0.00 | 0.00 | 0.00 | 74 | 1011.8 |
| 20260503231208 | 30 | 79 | 17.7 | 27.4 | 0.00 | 0.00 | 0.00 | 76 | 1011.8 |
| 20260503230705 | 29 | 71 | 25.7 | 32.2 | 0.00 | 0.00 | 0.00 | 77 | 1011.8 |
| 20260503230202 | 29 | 78 | 17.7 | 22.5 | 0.00 | 0.00 | 0.00 | 77 | 1011.8 |
| 20260503225659 | 28 | 80 | 16.1 | 20.9 | 0.00 | 0.00 | 0.00 | 79 | 1012.2 |
| 20260503225159 | 28 | 74 | 16.1 | 22.5 | 0.00 | 0.00 | 0.00 | 79 | 1011.8 |
| 20260503224657 | 28 | 60 | 12.9 | 19.3 | 0.00 | 0.00 | 0.00 | 80 | 1011.8 |
| 20260503224155 | 28 | 79 | 12.9 | 19.3 | 0.00 | 0.00 | 0.00 | 81 | 1011.8 |
| 20260503223652 | 28 | 73 | 14.5 | 17.7 | 0.00 | 0.00 | 0.00 | 81 | 1011.8 |
| 20260503223149 | 28 | 84 | 12.9 | 17.7 | 0.00 | 0.00 | 0.00 | 81 | 1011.8 |
| 20260503222646 | 28 | 77 | 16.1 | 17.7 | 0.00 | 0.00 | 0.00 | 81 | 1011.5 |
| 20260503222143 | 28 | 76 | 16.1 | 20.9 | 0.00 | 0.00 | 0.00 | 82 | 1011.5 |
| 20260503221642 | 28 | 74 | 16.1 | 20.9 | 0.00 | 0.00 | 0.00 | 83 | 1011.5 |
| 20260503221139 | 28 | 71 | 17.7 | 22.5 | 0.00 | 0.00 | 0.00 | 82 | 1011.5 |
| 20260503220635 | 28 | 77 | 14.5 | 19.3 | 0.00 | 0.00 | 0.00 | 81 | 1011.5 |
| 20260503220132 | 28 | 73 | 20.9 | 25.7 | 0.00 | 0.00 | 0.00 | 80 | 1011.1 |
| 20260503215630 | 28 | 59 | 17.7 | 22.5 | 0.00 | 0.00 | 0.00 | 81 | 1011.1 |
| 20260503215126 | 28 | 65 | 12.9 | 16.1 | 0.00 | 0.00 | 0.00 | 82 | 1011.1 |
| 20260503214625 | 28 | 74 | 12.9 | 17.7 | 0.00 | 0.00 | 0.00 | 82 | 1011.1 |
| 20260503214120 | 28 | 74 | 14.5 | 19.3 | 0.00 | 0.00 | 0.00 | 82 | 1011.1 |
| 20260503213620 | 28 | 75 | 16.1 | 19.3 | 0.00 | 0.00 | 0.00 | 82 | 1011.1 |
| 20260503213116 | 27 | 67 | 16.1 | 19.3 | 0.00 | 0.00 | 0.00 | 84 | 1011.1 |
| 20260503212613 | 27 | 62 | 12.9 | 16.1 | 0.00 | 0.00 | 0.00 | 85 | 1011.1 |
| 20260503212111 | 27 | 71 | 9.7 | 11.3 | 0.00 | 0.00 | 0.00 | 85 | 1011.1 |
| 20260503211608 | 27 | 69 | 8.0 | 11.3 | 0.00 | 0.00 | 0.00 | 85 | 1011.1 |
| 20260503211103 | 27 | 76 | 8.0 | 11.3 | 0.00 | 0.00 | 0.00 | 85 | 1011.1 |
| 20260503210600 | 27 | 82 | 8.0 | 9.7 | 0.00 | 0.00 | 0.00 | 86 | 1011.1 |
| 20260503210056 | 27 | 67 | 11.3 | 12.9 | 0.00 | 0.00 | 0.00 | 86 | 1011.1 |
| 20260503205552 | 27 | 61 | 6.4 | 9.7 | 0.00 | 0.00 | 0.00 | 86 | 1011.1 |
| 20260503205049 | 27 | 62 | 6.4 | 8.0 | 0.00 | 0.00 | 0.00 | 87 | 1010.8 |
| 20260503204546 | 26 | 63 | 8.0 | 9.7 | 0.00 | 0.00 | 0.00 | 87 | 1010.8 |
| 20260503204043 | 26 | 75 | 9.7 | 11.3 | 0.00 | 0.00 | 0.00 | 87 | 1010.8 |
| 20260503203540 | 26 | 70 | 11.3 | 12.9 | 0.00 | 0.00 | 0.00 | 87 | 1010.8 |
| 20260503203037 | 26 | 64 | 6.4 | 11.3 | 0.00 | 0.00 | 0.00 | 87 | 1010.8 |
| 20260503202535 | 26 | 64 | 8.0 | 9.7 | 0.00 | 0.00 | 0.00 | 87 | 1010.8 |
| 20260503202033 | 26 | 67 | 8.0 | 8.0 | 0.00 | 0.00 | 0.00 | 88 | 1010.5 |
| 20260503201531 | 26 | 71 | 8.0 | 9.7 | 0.00 | 0.00 | 0.00 | 88 | 1010.8 |
| 20260503201028 | 26 | 60 | 6.4 | 8.0 | 0.00 | 0.00 | 0.00 | 88 | 1010.8 |
| 20260503200524 | 26 | 63 | 6.4 | 8.0 | 0.00 | 0.00 | 0.00 | 88 | 1010.8 |
| 20260503200021 | 26 | 62 | 6.4 | 8.0 | 0.00 | 0.00 | 0.00 | 88 | 1010.8 |
| 20260503195518 | 26 | 73 | 6.4 | 8.0 | 0.00 | 0.00 | 0.00 | 87 | 1010.5 |
| 20260503195015 | 26 | 73 | 6.4 | 8.0 | 0.00 | 0.00 | 0.00 | 87 | 1010.8 |
| 20260503194512 | 26 | 96 | 6.4 | 6.4 | 0.00 | 0.00 | 0.00 | 87 | 1010.8 |
| 20260503194011 | 26 | 71 | 6.4 | 6.4 | 0.00 | 0.00 | 0.00 | 86 | 1010.8 |
| 20260503193508 | 26 | 67 | 8.0 | 9.7 | 0.00 | 0.00 | 0.00 | 86 | 1010.8 |
| 20260503193004 | 26 | 64 | 8.0 | 9.7 | 0.00 | 0.00 | 0.00 | 86 | 1010.8 |
| 20260503192500 | 26 | 74 | 6.4 | 9.7 | 0.00 | 0.00 | 0.00 | 86 | 1010.8 |
| 20260503191955 | 26 | 66 | 11.3 | 14.5 | 0.00 | 0.00 | 0.00 | 87 | 1010.5 |
| 20260503191453 | 26 | 68 | 9.7 | 11.3 | 0.00 | 0.00 | 0.00 | 87 | 1010.5 |
| 20260503190949 | 26 | 75 | 9.7 | 12.9 | 0.00 | 0.00 | 0.00 | 88 | 1010.5 |
| 20260503190447 | 26 | 73 | 9.7 | 12.9 | 0.00 | 0.00 | 0.00 | 89 | 1010.5 |
| 20260503185944 | 26 | 87 | 6.4 | 8.0 | 0.00 | 0.00 | 0.00 | 89 | 1010.5 |
| 20260503185440 | 26 | 66 | 8.0 | 9.7 | 0.00 | 0.00 | 0.00 | 89 | 1010.5 |